Forecast Directory
U.S. Alerts
El Dorado Weather Logo
U.S. Radar Loop Conditions Map

U.S. Color Satellite North America Color Infrared Animated Satellite Loop

Interactive Wx Map Live U.S. Google Map Radar Thumbnail Image

US Precipitation 1 day, 24 hour precipitation map

US Temperatures US Conditions Map

US Climate Data US Conditions Map


NOAA NWS Hourly Roundups by Site
Regional Weather Roundup for Sacramento, CA
Select Site:  

000
ASUS46 KSTO 131015
RWRCA

NORTHERN AND CENTRAL CA REGIONAL WEATHER ROUNDUP
NATIONAL WEATHER SERVICE SACRAMENTO CA
300 AM PDT MON JUL 13 2020

NOTE: FAIR INDICATES FEW OR NO CLOUDS BELOW 12,000 FEET WITH NO
SIGNIFICANT WEATHER AND/OR OBSTRUCTIONS TO VISIBILITY.

CAZ001-003-131100-
NORTHWEST AREA

CITY           SKY/WX    TMP DP  RH WIND       PRES   REMARKS
CRESCENT CITY  CLOUDY    56  53  90 W3        29.99S FOG
UKIAH          CLEAR     65  52  62 CALM      29.84F
$$

CAZ006-505>513-131100-
BAY AREA

CITY           SKY/WX    TMP DP  RH WIND       PRES   REMARKS
SANTA ROSA     CLEAR     57  52  83 S5        29.82S
SAN RAFAEL     N/A       MM  MM  MM MISG
NAPA           CLEAR     62  56  80 SW13      29.82S
CONCORD        CLEAR     64  54  69 S15       29.80F
OAKLAND CITY   N/A       59  MM  MM MISG
OAKLAND        CLOUDY    61  56  83 CALM      29.86F
SAN FRAN CITY  N/A       55  MM  86 MISG
SAN FRAN ARPT  PTCLDY    56  52  86 NW10      29.86S
LIVERMORE      CLEAR     62  52  69 W6        29.84S
HAYWARD        CLEAR     59  54  83 W6        29.86F
REDWOOD CITY   N/A       62  MM  75 MISG
MOFFETT ARPT     N/A     61  55  82 CALM      29.86S
SAN JOSE ARPT  CLEAR     61  54  77 N6        29.86F
$$
CAZ034-037-514>518-131100-
CENTRAL COAST

CITY           SKY/WX    TMP DP  RH WIND       PRES   REMARKS
WATSONVILLE    MOCLDY    55  53  93 CALM      29.89S
SALINAS        CLOUDY    58  54  86 NW13      29.89S FOG
MONTEREY       CLOUDY    57  54  89 SW6       29.91S FOG
SAN LUIS OBISP CLEAR     54  52  93 S5        29.87F
SANTA MARIA    CLOUDY    55  53  93 S7        29.88F FOG
$$
CAZ015-016-131100-
NORTHERN SACRAMENTO VALLEY

CITY           SKY/WX    TMP DP  RH WIND       PRES   REMARKS
REDDING        CLEAR     76  52  43 CALM      29.77S
RED BLUFF      CLEAR     78  49  35 NW3       29.77S
OROVILLE       CLEAR     74  50  42 S7        29.77S
$$
CAZ016>018-131100-
SOUTHERN SACRAMENTO VALLEY

CITY           SKY/WX    TMP DP  RH WIND       PRES   REMARKS
AUBURN         CLEAR     73  37  27 E7        29.83F
BEALE AFB      CLEAR     69  46  43 S6        29.73F
LINCOLN        FAIR      73  50  43 S10       29.75S
MARYSVILLE     CLEAR     70  52  52 S6        29.75S
SAC INTL ARPT  CLEAR     69  54  58 S9        29.75S
MATHER AIRPORT NOT AVBL
DOWNTOWN SAC   N/A       70  MM  MM MISG
SAC EXEC ARPT  CLEAR     68  54  60 S8        29.76F
VACAVILLE      CLEAR     71  52  50 SW5       29.75F
TRAVIS AFB     CLEAR     63  54  73 SW26      29.75S
$$
CAZ019>021-131100-
SAN JOAQUIN VALLEY

CITY           SKY/WX    TMP DP  RH WIND       PRES   REMARKS
STOCKTON       CLEAR     74  51  44 W7        29.77F
MODESTO        CLEAR     75  49  39 N5        29.76F
MERCED         CLEAR     74  48  39 W6        29.77S
LEMOORE        CLEAR     75  44  33 N9        29.77S
FRESNO         CLEAR     80  45  28 NW12      29.77S
HANFORD        CLEAR     80  46  30 NW8       29.77S
PORTERVILLE    CLEAR     74  54  49 S7        29.79S
BAKERSFIELD    CLEAR     83  50  31 CALM      29.79S
$$
CAZ011-012-071-131100-
NORTHERN MOUNTAINS

CITY           SKY/WX    TMP DP  RH WIND       PRES   REMARKS
YREKA          CLEAR     63  50  62 N9        30.03S
MOUNT SHASTA   CLEAR     61  50  67 CALM      30.03F
ALTURAS        CLEAR     58  45  62 CALM      30.07S
$$
CAZ011-012-071-131100-
SIERRA NEVADA MTNS

CITY           SKY/WX    TMP DP  RH WIND       PRES   REMARKS
BLUE CANYON    CLEAR     68  32  26 SE5       30.10F
TRUCKEE        CLEAR     41  30  65 CALM      30.14F
TAHOE VLY ARPT CLEAR     64  27  24 SW6       30.15F
MAMMOTH LAKES  FAIR      63  32  31 NE3       30.22F
$$


 

View Past Reports for Sacramento, CA.

Products Courtesy of NOAA-NWS
NWS Information Parsing Script by Ken True at Saratoga Weather - Script by SE Lincoln Weather.



Contact Us | Mobile
Never base any life decisions on weather information from this site or anywhere over the Internet.
Site is dedicated to our Lord & Savior Jesus Christ | Random Quotes of Jesus

Copyright © 2020 El Dorado Weather, Inc. | Site Designed By:  El Dorado Weather